Tiempo cada hora Czysciec

Hoy, 4 Agosto, Miércoles

Tiempo Temperatura Precipitaciones Viento Presión Humedad
00:00 +16°C° 0 mm 1 mps 751 mmHg 74%
01:00 +16°C° 0 mm 1 mps 751 mmHg 75%
02:00 +16°C° 0.4 mm 1 mps 750 mmHg 79%
03:00 +16°C° 0.4 mm 1 mps 750 mmHg 82%
04:00 +15°C° 0.4 mm 1 mps 750 mmHg 86%
05:00 +15°C° 0.7 mm 1 mps 751 mmHg 87%
06:00 +16°C° 0.7 mm 1 mps 751 mmHg 88%
07:00 +16°C° 0.7 mm 2 mps 751 mmHg 89%
08:00 +17°C° 0.1 mm 2 mps 751 mmHg 82%
09:00 +18°C° 0.1 mm 2 mps 751 mmHg 75%
10:00 +20°C° 0.1 mm 2 mps 751 mmHg 69%
11:00 +20°C° 0.7 mm 2 mps 751 mmHg 66%
12:00 +21°C° 0.7 mm 2 mps 751 mmHg 64%
13:00 +21°C° 0.7 mm 2 mps 750 mmHg 61%
14:00 +23°C° 0.6 mm 2 mps 750 mmHg 60%
15:00 +23°C° 0.6 mm 2 mps 750 mmHg 59%
16:00 +23°C° 0.6 mm 2 mps 750 mmHg 57%
17:00 +21°C° 0.3 mm 2 mps 750 mmHg 61%
18:00 +20°C° 0.3 mm 2 mps 750 mmHg 66%
19:00 +19°C° 0.3 mm 2 mps 750 mmHg 70%
20:00 +18°C° 0 mm 2 mps 750 mmHg 74%
21:00 +17°C° 0 mm 2 mps 750 mmHg 79%
22:00 +16°C° 0 mm 2 mps 751 mmHg 83%
23:00 +15°C° 0 mm 2 mps 750 mmHg 86%

Mañana, 5 Agosto, Jueves

Tiempo Temperatura Precipitaciones Viento Presión Humedad
00:00 +15°C° 0 mm 2 mps 750 mmHg 89%
01:00 +14°C° 0 mm 2 mps 750 mmHg 92%
02:00 +14°C° 0 mm 2 mps 750 mmHg 93%
03:00 +14°C° 0 mm 2 mps 750 mmHg 94%
04:00 +14°C° 0 mm 2 mps 750 mmHg 95%
05:00 +14°C° 0 mm 3 mps 750 mmHg 91%
06:00 +16°C° 0 mm 3 mps 750 mmHg 86%
07:00 +17°C° 0 mm 4 mps 750 mmHg 82%
08:00 +19°C° 0.1 mm 4 mps 749 mmHg 75%
09:00 +20°C° 0.1 mm 4 mps 749 mmHg 69%
10:00 +22°C° 0.1 mm 4 mps 749 mmHg 62%
11:00 +22°C° 0.6 mm 4 mps 749 mmHg 61%
12:00 +22°C° 0.6 mm 4 mps 749 mmHg 60%
13:00 +22°C° 0.6 mm 4 mps 748 mmHg 59%
14:00 +23°C° 0.2 mm 4 mps 748 mmHg 57%
15:00 +23°C° 0.2 mm 4 mps 748 mmHg 55%
16:00 +23°C° 0.2 mm 4 mps 748 mmHg 53%
17:00 +22°C° 0.1 mm 3 mps 747 mmHg 57%
18:00 +21°C° 0.1 mm 3 mps 747 mmHg 60%
19:00 +20°C° 0.1 mm 3 mps 747 mmHg 64%
20:00 +19°C° 0 mm 2 mps 747 mmHg 67%
21:00 +19°C° 0 mm 2 mps 747 mmHg 70%
22:00 +18°C° 0 mm 2 mps 747 mmHg 73%
23:00 +19°C° 0.1 mm 1 mps 747 mmHg 75%

Pasado mañana, 6 Agosto, Viernes

Tiempo Temperatura Precipitaciones Viento Presión Humedad
00:00 +19°C° 0.1 mm 1 mps 747 mmHg 77%
01:00 +18°C° 0.1 mm 1 mps 746 mmHg 79%
02:00 +18°C° 0.6 mm 1 mps 746 mmHg 82%
03:00 +16°C° 0.6 mm 1 mps 746 mmHg 85%
04:00 +16°C° 0.6 mm 1 mps 746 mmHg 88%
05:00 +16°C° 0.1 mm 1 mps 746 mmHg 87%
06:00 +18°C° 0.1 mm 1 mps 746 mmHg 86%
07:00 +18°C° 0.1 mm 1 mps 746 mmHg 85%
08:00 +19°C° 0.6 mm 1 mps 746 mmHg 80%
09:00 +19°C° 0.6 mm 2 mps 747 mmHg 74%
10:00 +19°C° 0.6 mm 2 mps 747 mmHg 69%
11:00 +20°C° 0.2 mm 2 mps 747 mmHg 65%
12:00 +21°C° 0.2 mm 3 mps 747 mmHg 60%
13:00 +21°C° 0.2 mm 3 mps 747 mmHg 56%
14:00 +21°C° 0 mm 3 mps 747 mmHg 53%
15:00 +23°C° 0 mm 2 mps 747 mmHg 50%
16:00 +23°C° 0 mm 2 mps 747 mmHg 46%
17:00 +21°C° 0 mm 2 mps 747 mmHg 51%
18:00 +20°C° 0 mm 2 mps 747 mmHg 55%
19:00 +19°C° 0 mm 2 mps 747 mmHg 60%
20:00 +18°C° 0 mm 2 mps 747 mmHg 63%
21:00 +17°C° 0 mm 2 mps 747 mmHg 66%
22:00 +15°C° 0 mm 2 mps 747 mmHg 70%
23:00 +15°C° 0 mm 2 mps 747 mmHg 70%

7 Agosto, Sábado

Tiempo Temperatura Precipitaciones Viento Presión Humedad
00:00 +15°C° 0 mm 2 mps 747 mmHg 71%
01:00 +15°C° 0 mm 2 mps 747 mmHg 72%
02:00 +15°C° 0 mm 2 mps 747 mmHg 73%
03:00 +15°C° 0 mm 2 mps 747 mmHg 73%
04:00 +15°C° 0 mm 2 mps 747 mmHg 74%
05:00 +16°C° 0 mm 2 mps 747 mmHg 73%
06:00 +17°C° 0 mm 3 mps 747 mmHg 72%
07:00 +18°C° 0 mm 3 mps 747 mmHg 71%
08:00 +20°C° 0 mm 3 mps 747 mmHg 66%
09:00 +22°C° 0 mm 3 mps 747 mmHg 62%
10:00 +24°C° 0 mm 3 mps 747 mmHg 57%
11:00 +25°C° 0 mm 4 mps 747 mmHg 52%
12:00 +26°C° 0 mm 4 mps 747 mmHg 47%
13:00 +27°C° 0 mm 5 mps 747 mmHg 42%
14:00 +27°C° 0 mm 5 mps 747 mmHg 41%
15:00 +27°C° 0 mm 5 mps 747 mmHg 41%
16:00 +27°C° 0 mm 4 mps 747 mmHg 40%
17:00 +26°C° 0 mm 3 mps 747 mmHg 46%
18:00 +25°C° 0 mm 2 mps 747 mmHg 51%
19:00 +24°C° 0 mm 1 mps 747 mmHg 56%
20:00 +23°C° 0 mm 1 mps 747 mmHg 57%
21:00 +23°C° 0 mm 1 mps 747 mmHg 57%
22:00 +22°C° 0 mm 1 mps 747 mmHg 58%
23:00 +21°C° 0.4 mm 1 mps 747 mmHg 68%

8 Agosto, Domingo

Tiempo Temperatura Precipitaciones Viento Presión Humedad
00:00 +19°C° 0.4 mm 2 mps 747 mmHg 79%
01:00 +18°C° 0.4 mm 2 mps 747 mmHg 89%
02:00 +18°C° 1.9 mm 2 mps 747 mmHg 91%
03:00 +18°C° 1.9 mm 2 mps 747 mmHg 94%
04:00 +18°C° 1.9 mm 2 mps 747 mmHg 96%
05:00 +18°C° 0.1 mm 3 mps 748 mmHg 94%
06:00 +18°C° 0.1 mm 4 mps 748 mmHg 91%
07:00 +18°C° 0.1 mm 4 mps 748 mmHg 89%
08:00 +20°C° 0 mm 5 mps 749 mmHg 78%
09:00 +21°C° 0 mm 5 mps 749 mmHg 67%
10:00 +23°C° 0 mm 5 mps 750 mmHg 57%
11:00 +25°C° 0 mm 5 mps 750 mmHg 51%
12:00 +26°C° 0 mm 5 mps 750 mmHg 46%
13:00 +27°C° 0 mm 5 mps 751 mmHg 41%
14:00 +27°C° 0 mm 5 mps 751 mmHg 40%
15:00 +27°C° 0 mm 5 mps 751 mmHg 40%
16:00 +27°C° 0 mm 5 mps 751 mmHg 39%
17:00 +25°C° 0 mm 4 mps 752 mmHg 44%
18:00 +24°C° 0 mm 3 mps 752 mmHg 49%
19:00 +22°C° 0 mm 3 mps 752 mmHg 54%
20:00 +21°C° 0 mm 3 mps 752 mmHg 57%
21:00 +20°C° 0 mm 3 mps 753 mmHg 59%
22:00 +20°C° 0 mm 3 mps 753 mmHg 61%
23:00 +19°C° 0.1 mm 3 mps 753 mmHg 66%

9 Agosto, Lunes

Tiempo Temperatura Precipitaciones Viento Presión Humedad
00:00 +18°C° 0.1 mm 2 mps 754 mmHg 71%
01:00 +18°C° 0.1 mm 2 mps 754 mmHg 75%
02:00 +17°C° 0 mm 2 mps 754 mmHg 78%
03:00 +16°C° 0 mm 2 mps 754 mmHg 80%
04:00 +16°C° 0 mm 2 mps 754 mmHg 83%
05:00 +17°C° 0 mm 2 mps 754 mmHg 79%
06:00 +18°C° 0 mm 2 mps 755 mmHg 75%
07:00 +19°C° 0 mm 2 mps 755 mmHg 71%
08:00 +20°C° 0 mm 2 mps 755 mmHg 64%
09:00 +22°C° 0 mm 3 mps 755 mmHg 57%
10:00 +24°C° 0 mm 3 mps 755 mmHg 50%
11:00 +25°C° 0 mm 3 mps 755 mmHg 46%
12:00 +26°C° 0 mm 4 mps 755 mmHg 42%
13:00 +27°C° 0 mm 4 mps 755 mmHg 38%
14:00 +27°C° 0 mm 4 mps 754 mmHg 38%
15:00 +26°C° 0 mm 3 mps 754 mmHg 38%
16:00 +26°C° 0 mm 3 mps 754 mmHg 39%
17:00 +25°C° 0 mm 3 mps 754 mmHg 43%
18:00 +24°C° 0 mm 2 mps 754 mmHg 48%
19:00 +23°C° 0 mm 2 mps 754 mmHg 53%
20:00 +21°C° 0 mm 2 mps 754 mmHg 55%
21:00 +20°C° 0 mm 2 mps 754 mmHg 56%
22:00 +19°C° 0 mm 3 mps 754 mmHg 58%
23:00 +19°C° 0 mm 2 mps 754 mmHg 63%
Mostrar más

Necesitamos Su Consentimiento

Meteoprog y nuestros Proveedores de Servicios pueden almacenar y acceder a sus datos personales como cookies, identificadores de dispositivo u otras tecnologías similares de su dispositivo y procesar dichos datos para personalizar contenido y anuncios, además de ofrecer funciones de redes sociales y analizar el tráfico.

  • Almacenar y/o acceder a información en su dispositivo

    Se puede almacenar o acceder a cookies, identificadores de dispositivo u otra información de su dispositivo para los fines anteriormente indicados.

  • Anuncios y contenido personalizados, medición de anuncios y contenido, percepciones del público, y desarrollo de productos

    Los anuncios y el contenido pueden personalizarse en base a su perfil. Se pueden añadir más datos para personalizar mejor los anuncios y contenidos. Se puede medir el rendimiento de los anuncios y contenidos. Se puede obtener la percepción sobre el público que ha visto los anuncios y contenidos. Dichos datos pueden usarse para desarrollar o mejorar la experiencia del usuario, sistemas y software.

Al hacer clic en ‘Estoy De Acuerdo’ usted permitirá el uso de las cookies, identificadores de dispositivo, balizas web u otras tecnologías similares indicadas. Su configuración puede cambiarse desde el navegador de su dispositivo.

Para ciertos fines, los intereses legítimos pueden ser considerados por encima del consentimiento. Puede leer más sobre ello en nuestra Política de Privacidad y Cookies.